Theta_e
292 288 287 286 289 291 290 291 291 286 286 285 282 281 282 283 284 284 284 286 286 288 286 288 288 288 290 292 293 290 287 287 289 289 290 291 291 290 290 291 292 292 293 291 291 291 292 293 295 299 302 303 303 303 303 303 303 302 301 301 299 299 299 299 299 299 300 299 298 296 296 293 293 292 292 292 292 292 293 294 295 295 295 295 295 294
291 287 287 290 292 289 289 288 285 286 286 287 283 285 285 283 286 287 289 288 287 288 283 284 285 287 289 291 292 289 286 289 289 290 290 291 291 292 291 291 291 292 290 289 290 290 290 292 294 299 302 302 302 302 302 302 302 302 301 301 299 299 299 299 300 299 299 299 299 295 292 291 292 293 291 290 291 292 293 293 292 293 293 293 293 292
288 288 290 293 289 287 286 288 287 288 286 284 287 283 284 284 284 287 286 286 287 287 287 285 286 289 289 290 291 290 290 291 291 292 293 293 293 292 292 292 292 290 291 290 291 290 291 292 294 298 301 302 303 302 302 303 302 301 301 300 299 299 299 300 299 297 294 295 295 294 293 291 289 291 290 289 290 292 291 291 291 291 291 291 291 291
285 285 292 290 287 289 286 285 287 286 285 285 282 284 285 282 285 283 283 286 288 289 284 282 284 287 289 291 291 292 292 291 292 292 292 293 293 293 293 293 293 292 292 290 290 290 290 292 294 297 301 302 302 301 301 301 301 301 301 300 299 299 299 298 296 294 292 291 291 291 291 291 290 288 290 290 290 290 291 289 289 289 290 289 289 289
288 288 290 290 289 290 288 284 286 285 285 283 285 283 283 284 285 286 285 285 285 287 284 286 286 287 290 291 292 292 288 290 293 291 291 291 292 294 293 292 293 293 292 291 290 290 290 291 294 297 300 302 301 301 301 301 301 301 300 300 300 299 297 295 293 292 291 290 289 289 289 289 288 289 289 289 287 287 288 287 287 287 288 288 288 288
288 289 288 289 287 288 286 284 285 287 284 281 283 288 288 286 286 284 284 287 283 281 283 285 281 278 281 286 289 289 286 289 290 290 293 294 293 291 291 293 293 292 292 292 291 291 291 292 293 297 300 301 301 301 300 300 301 301 301 300 298 297 294 293 292 292 292 291 289 289 289 288 288 287 288 288 286 286 286 285 285 286 287 287 287 286
289 290 290 288 288 287 287 285 284 288 285 284 284 286 289 287 286 286 285 285 279 280 284 283 282 279 282 288 290 285 285 289 292 290 293 293 293 292 292 293 292 292 290 291 291 291 291 291 293 297 300 301 301 301 301 300 300 301 300 298 296 295 293 292 291 292 292 291 291 292 292 291 290 288 285 285 285 285 284 285 285 285 285 285 285 284
288 289 287 286 287 286 285 284 286 289 287 282 283 283 286 285 285 284 284 285 282 280 283 284 283 282 282 288 291 288 289 291 291 293 293 294 294 293 293 293 292 291 291 291 291 291 291 292 293 296 300 301 301 301 299 298 299 299 297 296 295 293 292 292 292 292 292 292 292 293 291 291 290 288 284 284 284 284 284 284 284 283 283 282 282 282
289 287 287 286 286 284 286 286 286 290 287 283 286 283 283 285 284 284 284 282 282 281 280 282 283 282 280 281 284 285 286 287 290 292 293 295 296 295 293 293 292 292 291 291 291 291 291 291 293 296 300 302 302 300 298 296 296 297 296 295 294 293 292 291 292 292 292 293 293 291 290 287 286 285 284 284 285 284 284 282 281 281 281 281 281 281
286 289 290 291 289 287 285 283 287 291 287 286 284 284 283 282 282 281 281 284 280 278 279 282 282 279 284 282 285 282 286 287 290 293 294 295 296 294 293 292 291 290 289 290 291 291 291 292 293 297 300 302 301 299 297 295 295 294 294 294 293 292 292 292 292 292 292 292 291 290 288 285 284 284 284 284 283 282 281 281 280 280 280 280 281 281
288 290 290 289 288 287 285 285 285 289 288 287 285 287 285 281 279 278 279 278 279 276 283 283 283 284 281 282 286 286 287 289 292 291 294 295 294 291 290 291 289 288 288 288 289 289 290 291 293 297 299 301 300 297 296 294 294 293 293 293 292 292 291 291 292 292 291 290 291 289 287 285 284 284 283 282 281 281 280 280 280 280 280 280 280 280
289 287 290 288 289 287 288 287 285 284 285 288 286 282 286 285 278 279 272 275 275 277 282 280 283 284 280 280 283 287 286 286 290 291 292 294 293 290 289 288 288 287 287 287 288 288 289 289 291 296 298 300 298 296 295 294 294 293 293 292 291 290 291 291 291 290 289 290 289 289 287 286 285 284 283 282 281 281 280 280 280 279 280 279 280 279
285 286 285 288 289 290 286 286 286 285 288 286 285 287 280 274 272 272 272 275 273 278 278 278 281 281 283 287 284 285 289 290 288 291 294 293 292 291 289 287 286 286 285 287 287 288 288 290 291 294 298 299 296 295 294 294 293 293 292 292 290 289 290 290 289 288 288 288 288 287 286 285 285 284 283 282 281 281 281 280 280 279 279 279 279 279
282 282 286 287 289 289 291 287 284 283 287 286 287 283 279 273 272 269 266 264 269 276 278 281 282 281 281 285 291 294 295 295 293 291 292 291 292 293 290 286 285 285 285 287 287 288 289 290 291 294 298 298 296 295 294 293 293 293 292 292 291 290 290 289 288 288 287 287 287 287 286 286 285 284 283 282 282 281 281 281 280 280 280 280 280 279
276 279 283 288 286 289 292 293 291 286 287 289 285 289 284 278 271 267 265 275 278 276 276 278 277 276 277 283 288 290 289 285 288 289 289 288 289 289 285 284 284 284 284 286 287 288 289 290 291 293 297 297 296 295 293 293 293 292 291 291 291 289 289 289 288 287 286 286 286 286 286 285 284 283 283 282 282 282 281 281 280 280 280 280 280 280
282 282 280 289 287 291 291 290 288 285 285 286 285 284 280 283 278 278 273 270 270 270 272 273 280 280 283 285 286 285 285 286 287 290 289 290 291 288 287 285 284 285 285 285 287 287 288 289 290 292 295 296 296 295 293 292 292 292 291 290 290 289 288 288 287 287 286 285 286 285 285 284 284 283 282 282 282 281 281 281 281 280 280 280 280 279
281 278 283 287 287 290 292 288 289 288 285 284 286 285 285 283 284 274 273 271 272 270 278 272 280 282 284 287 291 292 286 288 286 287 288 291 293 290 291 287 283 285 285 285 287 288 288 288 289 292 294 295 295 294 293 292 292 292 291 290 289 288 288 287 287 286 286 285 285 284 284 283 283 282 281 281 281 281 280 280 280 280 279 279 279 279
283 280 284 285 287 286 286 286 286 286 286 285 281 284 285 284 285 282 277 270 269 273 276 275 281 282 279 283 282 286 287 290 288 289 290 289 288 288 292 289 284 285 286 286 287 286 287 288 289 291 293 293 294 294 293 293 292 292 291 290 289 287 286 286 286 285 285 285 284 284 283 282 282 282 281 281 281 280 280 279 279 279 279 279 279 279
288 282 283 284 284 286 286 289 289 287 288 285 282 288 288 281 279 279 275 275 268 270 274 275 276 279 282 285 285 285 284 289 290 291 288 289 290 290 291 287 283 283 284 285 285 286 287 288 289 290 292 292 293 293 293 293 292 292 291 290 289 287 287 286 286 285 285 285 284 284 283 282 281 281 281 280 280 280 280 279 279 279 279 279 279 279
287 282 281 285 284 286 287 287 284 284 288 287 288 287 286 284 276 277 281 274 276 270 267 277 273 283 283 284 285 289 288 289 288 287 289 291 291 292 291 287 283 284 285 286 286 286 287 287 288 289 290 291 291 291 292 291 291 290 290 289 289 288 287 286 285 284 284 284 283 283 282 281 281 281 280 280 280 280 280 279 279 279 279 279 279 278
286 285 280 281 285 285 284 286 285 287 286 284 285 283 286 281 283 281 280 277 277 266 267 270 278 284 283 286 286 289 289 289 289 290 290 291 292 290 288 286 285 285 285 286 286 286 286 287 287 288 289 289 288 289 290 290 289 289 289 289 288 286 285 284 284 283 284 283 282 281 281 280 280 280 280 280 280 280 279 279 279 279 278 278 278 278
284 283 283 281 281 283 284 284 286 289 291 289 289 286 288 283 280 278 279 280 272 276 277 270 280 287 284 284 289 288 288 289 288 289 290 290 290 288 285 283 285 285 285 285 286 286 286 286 286 286 287 286 287 288 289 289 289 288 288 288 287 285 284 283 283 283 283 282 282 281 281 280 280 280 280 279 279 279 279 279 278 278 278 278 277 277
291 285 284 279 283 285 285 287 283 283 286 285 286 287 290 289 286 280 278 278 275 280 276 275 271 284 287 287 285 284 284 286 286 286 289 290 287 285 285 284 284 285 285 286 286 285 286 286 286 286 287 287 287 288 288 288 289 289 289 288 287 285 284 284 283 283 282 282 281 281 281 280 280 280 279 279 279 278 278 278 278 278 277 277 276 276
293 288 285 285 283 282 283 283 284 283 286 286 285 281 286 286 288 286 284 281 283 276 279 276 274 285 286 285 282 283 283 283 283 283 289 288 286 285 284 282 283 283 283 283 284 284 285 285 285 285 286 286 286 287 287 288 288 288 289 288 287 285 284 284 284 283 282 282 281 281 280 280 279 279 279 279 278 278 278 278 277 277 277 276 276 276
287 286 287 282 276 278 280 284 284 286 285 281 282 285 288 289 288 282 282 281 279 282 284 281 277 284 285 282 283 283 283 284 285 285 283 286 287 285 284 283 283 283 283 283 284 284 284 284 284 285 286 287 287 287 287 287 287 288 288 288 287 285 285 285 284 283 282 282 281 280 280 279 279 279 279 278 278 278 277 277 277 277 276 276 276 276
290 288 287 282 279 278 277 277 280 282 283 283 280 284 286 287 286 284 284 281 282 285 283 283 283 289 286 285 288 285 283 285 285 284 282 284 286 286 284 283 283 283 283 283 284 283 284 284 285 285 286 286 287 287 287 287 287 288 288 288 287 286 285 285 285 284 283 282 282 280 279 279 279 279 278 278 278 277 277 277 277 276 276 276 276 275
285 286 289 288 286 284 287 283 284 286 283 283 285 286 286 288 289 289 287 285 283 286 281 285 287 289 288 287 287 288 284 286 286 287 287 287 286 285 284 284 283 283 284 284 284 284 283 284 284 285 285 286 287 287 287 286 287 287 287 287 287 287 286 285 285 284 283 283 282 281 280 279 279 279 279 278 278 278 277 277 277 277 276 276 276 275
285 286 288 288 288 289 291 282 285 290 286 287 287 286 287 287 287 287 286 285 289 284 282 288 288 287 289 291 286 286 287 284 285 285 286 286 286 286 286 283 285 283 283 282 283 284 284 284 284 284 285 285 286 286 286 286 286 286 286 287 286 286 286 285 284 284 283 283 282 281 280 279 279 279 279 279 278 278 277 277 277 277 276 276 276 276
287 287 289 288 288 290 292 285 287 287 288 288 288 287 286 286 286 285 287 289 289 285 284 290 289 287 290 293 292 292 290 290 289 291 291 290 287 286 284 284 284 284 283 283 284 284 284 284 284 284 285 285 285 286 286 286 285 285 285 285 286 286 285 285 284 283 283 283 282 282 281 280 279 279 279 278 278 277 277 277 277 277 277 277 277 277
288 286 287 287 287 289 290 287 285 287 285 285 286 287 288 287 286 287 288 290 289 288 290 290 288 289 293 295 293 295 294 292 294 290 288 290 293 293 289 288 286 286 284 284 285 285 285 285 285 285 284 284 285 285 286 286 285 285 285 285 285 285 284 284 284 283 283 282 282 282 281 281 280 279 278 278 278 278 278 277 277 277 277 277 277 276
290 287 291 287 286 287 289 288 286 286 286 285 285 286 287 287 287 288 288 289 289 289 291 291 289 289 295 291 290 291 290 291 289 288 292 291 290 290 291 288 287 286 286 286 285 285 285 285 285 284 284 284 285 285 286 286 286 285 285 285 285 285 285 285 284 284 283 283 283 282 281 280 279 279 278 278 278 278 278 277 277 277 277 276 276 275
289 285 286 287 285 285 288 288 286 283 284 285 285 285 285 285 284 286 286 289 288 287 289 288 287 288 293 292 293 288 289 290 292 293 292 292 292 290 288 288 287 287 287 287 287 286 285 284 284 284 284 284 285 285 286 286 285 285 285 284 284 285 285 284 284 284 283 283 282 282 281 280 280 279 279 278 278 278 278 277 277 276 276 275 275 275
287 287 286 286 284 285 289 287 285 284 284 283 285 288 288 287 287 288 289 290 290 291 287 286 287 293 296 293 292 289 289 291 290 291 293 295 294 290 290 290 290 290 289 289 287 286 285 285 285 285 285 285 285 285 286 286 285 285 285 284 284 284 283 284 284 284 283 283 282 281 281 280 279 279 279 278 278 278 277 277 277 276 275 275 275 275
287 287 286 286 283 285 286 285 286 283 277 280 292 294 293 289 287 286 287 288 290 291 290 293 294 296 296 295 292 293 289 291 293 295 295 295 294 290 288 288 290 290 289 288 288 288 287 286 285 285 285 285 285 285 286 286 286 285 285 284 283 283 283 284 284 284 283 283 282 281 281 280 279 279 279 278 278 277 277 276 276 276 276 275 275 275
286 286 286 286 283 284 285 285 282 277 280 290 288 289 294 295 292 290 291 291 291 292 292 292 293 294 296 296 295 294 295 295 293 292 290 287 287 290 292 292 290 288 289 289 288 287 287 285 284 284 284 284 284 284 285 285 285 284 283 283 283 283 283 283 283 283 283 282 282 281 281 280 280 279 279 278 278 277 277 276 276 276 276 275 275 274
286 286 286 284 285 284 282 283 277 279 287 287 287 285 284 289 292 290 288 291 292 292 292 291 293 295 296 295 295 295 294 292 289 288 287 286 287 291 291 291 290 288 288 289 290 289 286 285 285 285 285 284 284 284 284 285 285 284 283 283 283 282 283 283 283 283 283 282 282 281 281 280 280 279 278 278 277 277 277 276 276 276 275 275 275 275
291 288 287 284 287 281 282 282 283 286 286 287 286 285 288 287 287 287 284 288 292 293 292 292 293 294 294 294 295 295 289 288 290 294 286 289 290 290 290 291 291 291 290 289 287 287 286 286 286 285 284 283 284 283 284 284 284 283 282 282 282 282 282 282 282 282 282 282 282 281 281 281 280 279 278 278 277 277 277 276 276 276 276 275 275 275
292 288 287 285 283 287 283 281 281 281 279 285 289 284 290 290 293 292 290 288 291 293 294 293 292 293 293 293 294 290 287 288 290 293 290 289 291 290 289 289 288 285 285 285 284 284 283 283 283 283 284 283 283 283 284 283 283 282 281 281 281 281 281 281 282 283 282 282 281 281 281 280 280 279 278 278 277 277 277 277 277 276 276 275 275 275
290 291 289 286 285 284 283 280 281 279 283 289 287 287 289 289 291 290 287 285 291 289 292 293 292 293 293 293 292 288 287 285 288 292 287 286 286 287 288 286 284 283 283 284 284 284 282 283 283 283 283 283 282 282 283 283 283 282 281 281 281 282 281 281 282 282 282 282 282 281 280 280 280 279 278 278 278 278 277 277 277 277 276 276 276 276
287 287 287 284 283 285 283 282 280 284 285 287 284 283 286 288 292 290 279 281 290 288 290 291 293 293 294 293 288 287 288 286 288 292 285 282 283 283 283 284 284 284 283 283 284 283 283 282 282 282 282 282 282 282 283 283 283 282 282 281 281 281 282 283 283 284 283 283 282 281 280 280 280 279 279 278 278 278 278 278 277 277 276 276 276 276
284 285 286 282 284 284 285 283 285 285 287 285 283 282 284 291 291 284 279 288 288 286 288 292 292 294 293 288 287 288 288 293 291 284 281 282 282 283 281 280 281 282 282 282 282 282 282 282 283 283 282 282 282 282 283 283 283 282 282 282 282 282 283 284 284 284 283 283 282 281 280 280 280 279 279 279 278 278 278 278 278 277 276 275 275 275
284 285 285 286 283 283 284 283 283 286 288 285 283 286 287 290 280 282 290 285 288 285 287 289 291 290 288 288 288 291 290 280 278 280 282 282 282 281 279 280 280 281 280 280 281 282 282 281 281 281 280 281 282 283 283 283 283 283 282 282 282 283 284 284 284 284 283 282 282 281 280 280 280 280 280 279 279 278 278 278 278 277 276 276 275 275
284 283 280 283 285 286 285 283 282 279 288 288 287 285 286 287 287 289 284 283 284 285 286 285 287 288 286 287 287 288 285 281 282 281 280 279 280 280 280 280 280 280 281 281 281 280 282 281 280 280 280 280 281 283 283 284 283 283 283 282 283 284 284 284 284 283 283 282 282 281 280 280 280 280 280 279 279 278 277 277 276 276 275 274 274 273
288 283 282 284 288 281 282 280 281 287 286 289 291 286 288 291 288 287 288 287 281 282 285 285 285 285 285 288 287 283 280 280 281 279 279 279 279 279 279 279 279 279 279 279 279 280 281 281 280 279 278 279 281 283 284 285 284 284 283 283 283 283 284 284 283 283 283 282 282 281 280 280 280 279 279 278 278 277 277 275 275 273 273 273 272 271
287 284 286 284 288 286 284 287 286 284 287 290 291 290 293 294 285 285 285 286 285 282 281 283 286 283 283 284 283 283 280 280 281 280 281 280 279 279 280 280 279 279 279 280 279 279 280 281 279 278 278 278 281 282 284 285 284 283 283 283 283 283 283 283 283 282 282 281 281 280 280 279 279 278 278 277 277 276 276 273 272 272 270 270 271 270
283 284 284 285 285 287 286 286 285 283 285 288 288 283 283 287 283 284 285 286 285 285 284 287 285 284 283 283 283 279 283 282 280 280 279 279 280 279 278 278 277 277 277 277 277 278 278 278 278 278 277 276 277 280 282 283 284 283 283 281 281 282 282 281 281 281 280 280 279 279 278 277 277 277 276 276 276 276 276 274 272 273 271 270 271 271
282 281 285 283 284 286 282 286 285 286 284 286 289 284 280 281 283 282 283 284 285 284 285 284 285 285 285 283 286 285 282 280 281 280 279 279 279 279 279 279 279 279 279 279 278 277 278 278 278 277 277 277 275 278 278 278 278 279 278 278 279 279 279 279 279 279 278 278 277 277 277 276 276 275 274 274 274 275 274 273 272 272 270 270 270 270
282 283 284 282 283 285 284 286 282 281 280 281 284 286 286 283 281 280 282 280 280 281 283 282 283 284 283 283 285 284 281 280 281 280 279 279 279 278 278 277 277 276 275 275 275 275 276 277 277 276 276 277 275 274 275 275 275 275 276 276 277 277 277 278 278 278 277 277 277 276 276 276 272 274 274 273 273 273 272 271 272 272 271 270 270 270
286 287 280 284 285 285 284 282 280 282 283 282 280 280 283 283 282 280 279 279 279 280 279 280 282 284 283 284 281 281 280 280 281 281 280 279 278 278 278 277 276 276 275 275 272 273 277 275 275 275 275 275 272 272 273 271 271 273 275 275 275 276 277 277 276 276 275 275 275 274 274 275 273 274 273 272 271 272 273 273 271 272 272 272 272 272
285 284 282 283 278 280 284 287 283 281 281 286 284 284 284 283 280 280 278 278 279 280 280 282 280 280 281 281 280 281 282 280 278 278 279 279 279 278 277 276 274 274 272 272 271 271 272 272 273 274 273 272 270 271 272 270 268 269 271 272 273 276 276 275 275 274 274 274 274 272 272 272 271 271 271 271 271 270 269 270 274 273 272 271 273 276
287 287 285 283 281 282 287 288 287 289 289 285 285 285 285 282 279 279 280 280 280 280 281 282 280 279 279 278 277 281 283 281 278 278 278 278 278 278 278 277 276 275 274 272 272 270 271 270 270 270 270 271 269 270 270 269 267 268 268 271 273 276 275 275 274 273 271 271 272 271 271 271 270 269 269 269 269 268 269 266 268 276 277 276 275 276
Wind_Speed
1 3 5 8 9 11 7 11 6 3 5 5 4 3 3 3 5 4 4 5 0 0 8 9 8 8 11 12 13 4 4 4 7 10 11 10 9 10 11 12 13 12 15 3 7 8 8 8 6 6 6 6 6 6 6 7 7 6 6 8 7 5 6 5 7 4 6 7 6 7 6 7 5 4 3 5 4 4 5 7 6 7 7 7 7 7
3 1 8 11 12 5 6 4 5 5 3 1 3 2 4 2 8 4 1 2 1 3 4 1 4 10 13 13 14 1 3 9 11 12 13 15 13 12 13 14 14 13 0 4 5 6 6 5 6 7 7 8 9 7 8 8 8 8 8 9 7 6 5 5 6 4 5 2 1 7 6 7 5 6 4 5 4 4 7 7 5 6 7 7 7 7
1 9 10 12 2 5 3 5 3 5 2 2 3 2 1 7 5 9 4 3 1 2 9 4 8 11 11 13 13 8 10 9 8 12 15 14 14 12 12 13 12 7 10 6 8 6 8 8 8 8 8 8 9 8 9 8 9 8 8 7 8 7 6 4 5 4 5 4 5 5 6 4 6 5 4 4 4 5 9 8 4 7 6 7 7 6
3 5 17 2 5 4 2 3 4 2 2 3 1 1 8 3 1 6 1 2 0 5 3 1 4 9 10 12 15 14 12 9 11 13 16 12 13 13 15 13 12 13 11 11 11 12 10 9 9 8 10 10 8 8 8 8 10 8 8 8 8 8 7 6 5 7 6 7 8 8 8 7 6 6 7 8 4 6 10 8 5 8 7 7 7 6
12 3 1 6 6 6 4 2 5 5 5 2 5 5 3 3 6 7 5 3 1 2 2 4 8 8 10 14 12 7 3 5 14 10 11 12 11 13 8 7 12 15 12 11 10 9 11 11 13 13 11 9 10 9 10 9 9 7 9 10 9 8 7 7 8 8 7 8 8 8 10 9 9 7 8 8 5 4 6 5 6 7 6 7 7 6
11 7 3 4 4 4 4 3 6 7 4 2 6 11 9 6 6 4 4 4 7 4 3 2 6 5 5 7 13 7 5 5 6 6 15 16 11 10 13 19 11 8 8 13 15 15 15 14 9 9 11 12 10 10 9 8 8 8 9 9 8 7 7 8 8 10 10 10 12 10 10 7 6 7 6 7 7 7 8 6 2 6 6 6 7 6
6 0 4 5 5 4 3 3 3 5 6 0 6 8 11 7 3 1 1 2 3 4 2 1 2 9 1 7 8 3 3 10 9 7 14 12 11 9 14 14 9 10 7 6 8 11 12 12 11 11 12 13 12 10 8 8 8 9 9 9 8 8 8 8 10 11 9 9 7 10 11 13 13 12 3 3 4 4 5 4 7 6 6 5 7 5
2 1 4 3 4 4 4 4 4 11 6 5 2 2 3 3 5 5 3 5 6 1 4 1 1 8 9 10 8 5 8 11 11 14 14 14 13 13 11 10 8 10 10 11 13 13 12 13 16 17 16 13 12 9 9 9 8 10 9 9 9 7 8 9 9 9 8 9 8 7 6 6 7 8 11 8 7 5 4 7 7 6 5 5 4 6
6 5 6 5 2 4 8 6 5 9 7 3 1 6 4 5 4 2 3 3 1 3 9 2 0 4 6 3 3 1 5 6 14 15 14 15 15 12 8 10 10 10 11 11 11 13 14 15 14 12 13 12 11 10 11 9 8 9 9 9 9 9 9 9 10 9 7 6 7 7 8 8 5 8 8 8 6 7 7 9 5 6 5 5 4 4
2 4 8 9 8 9 5 1 7 12 5 2 5 7 7 7 6 3 3 3 2 1 8 5 4 3 18 5 2 4 2 7 12 13 14 15 13 8 7 7 8 6 5 6 7 8 11 11 11 9 8 10 10 8 7 7 8 8 9 9 10 10 8 8 9 8 7 6 7 8 7 11 11 8 7 5 7 8 7 8 6 5 6 5 5 4
1 4 3 4 7 4 5 2 2 2 2 7 3 7 5 8 3 3 6 2 2 5 10 9 9 7 12 3 9 7 8 9 9 7 9 10 9 6 6 6 4 4 4 5 5 6 7 6 8 8 11 11 9 7 9 9 9 8 9 10 11 10 9 9 10 9 9 7 7 8 11 13 12 8 12 11 7 7 6 8 7 6 6 5 6 5
0 2 1 1 3 3 4 4 4 2 3 4 2 3 3 2 6 2 4 4 1 9 1 2 7 8 12 4 6 7 3 3 6 8 10 11 9 6 5 4 3 3 4 4 5 5 6 6 7 8 10 12 11 10 10 10 10 10 9 10 11 10 10 10 9 9 8 8 8 8 11 14 16 16 12 14 14 11 11 9 9 6 6 5 5 5
4 6 2 4 4 8 3 7 3 3 0 3 5 6 4 4 6 3 2 2 5 9 2 1 2 3 18 13 5 6 9 8 9 11 11 9 8 7 6 5 2 2 4 5 5 6 7 10 11 12 11 12 12 12 12 11 11 10 10 12 13 11 11 10 10 9 9 9 9 10 10 9 11 14 14 13 14 12 11 10 10 9 8 7 7 6
7 1 2 3 1 4 7 8 3 1 4 5 7 6 5 0 0 5 4 2 7 8 3 0 2 9 2 7 15 20 20 16 10 11 11 8 10 11 5 2 1 1 4 5 6 7 9 10 11 12 13 13 11 12 12 11 11 10 10 12 13 12 11 11 10 9 9 9 8 9 9 10 10 10 12 11 13 11 10 9 11 10 10 10 10 9
5 7 8 8 5 6 9 13 12 6 10 11 3 11 9 8 7 4 5 6 9 6 2 5 1 8 4 3 1 8 6 5 7 7 5 6 10 8 4 1 1 2 4 5 7 9 10 10 11 12 12 12 12 12 12 11 11 11 11 11 12 12 12 12 13 10 10 9 9 8 8 9 8 10 10 9 10 11 11 9 9 8 7 8 8 9
12 8 6 8 1 9 14 3 7 6 3 3 2 5 3 10 6 6 5 3 1 4 6 2 7 4 6 3 6 4 6 6 7 9 6 11 10 6 7 4 4 4 4 5 6 7 8 9 10 10 10 11 12 13 11 12 11 11 11 12 13 14 14 13 13 12 11 10 9 10 10 10 9 8 8 7 6 7 9 10 9 9 8 7 8 6
2 6 1 3 3 8 8 3 2 5 9 4 6 8 6 2 5 3 2 1 1 2 13 3 9 7 8 7 11 11 5 8 5 6 7 11 13 7 9 3 4 4 5 5 8 9 8 6 8 10 10 10 11 12 13 13 13 13 13 13 13 13 13 14 13 13 12 10 10 11 10 10 9 9 11 11 11 10 8 7 7 8 7 7 7 8
8 6 1 2 5 2 0 0 3 4 4 8 4 7 2 2 3 4 6 2 3 4 9 3 11 8 4 14 3 1 6 12 7 10 10 8 7 7 12 4 3 6 7 8 6 5 6 8 9 9 9 9 11 13 13 13 11 11 11 13 14 13 14 12 12 12 12 13 12 12 12 10 11 11 10 9 11 9 9 7 6 6 8 8 7 7
3 7 2 1 0 3 2 2 2 1 1 5 4 6 8 4 3 2 4 5 1 5 8 5 2 8 10 12 1 3 5 10 14 13 6 8 8 10 10 3 1 3 4 5 7 6 7 9 10 10 10 9 9 10 11 11 10 10 9 10 12 15 14 15 12 10 9 11 10 10 12 12 9 7 8 7 7 8 9 9 8 8 8 7 7 7
1 5 4 1 3 1 0 3 9 4 1 1 3 4 1 2 1 6 7 3 5 6 1 9 5 14 5 7 8 9 12 10 6 3 8 12 11 10 8 3 4 6 7 7 7 8 8 8 9 11 11 11 11 11 10 11 10 11 10 10 10 9 11 12 12 12 12 11 9 9 10 9 9 9 8 8 9 9 9 9 9 8 8 8 7 6
3 2 8 1 3 2 3 6 11 13 11 2 3 4 1 0 2 5 1 4 4 5 4 2 11 13 4 7 8 9 9 10 8 9 8 8 10 9 5 4 5 6 6 7 7 7 7 8 8 8 8 7 6 6 8 10 12 11 10 11 11 13 11 11 11 11 11 10 9 10 11 11 9 9 8 8 8 8 8 7 7 7 6 6 6 7
3 3 10 2 0 7 7 3 4 7 12 14 15 13 15 10 5 4 8 3 2 3 5 4 14 15 2 3 8 7 6 7 7 6 7 8 8 2 3 4 5 5 6 6 6 6 6 6 6 6 5 5 7 8 10 10 10 11 12 11 11 10 11 12 10 10 10 9 10 12 11 10 9 9 8 9 8 8 8 8 8 7 7 7 6 6
8 4 5 8 10 10 3 0 1 1 1 3 4 10 11 10 6 5 7 6 0 4 4 3 4 22 4 7 4 4 2 4 4 5 10 7 5 3 4 4 4 5 5 7 7 7 7 7 8 8 9 10 10 10 9 10 11 12 12 12 11 12 12 11 11 10 10 10 10 11 10 10 9 9 10 10 8 8 8 7 7 7 9 8 7 6
5 2 2 4 2 2 3 3 1 1 1 2 2 2 5 10 12 10 7 6 9 2 4 2 1 18 1 1 2 2 4 2 7 3 9 7 4 3 4 4 5 4 4 4 4 4 6 7 6 8 9 10 10 10 11 11 10 11 11 12 11 12 11 11 11 10 10 10 10 10 10 10 9 11 10 11 8 9 8 7 7 7 7 7 7 8
5 5 10 4 1 2 3 2 2 1 1 3 3 5 9 8 7 1 5 1 3 10 12 9 12 20 1 3 0 1 3 4 5 6 4 6 7 4 3 4 4 4 4 4 6 6 6 7 10 11 11 11 11 10 10 11 11 11 11 11 12 11 11 11 11 11 10 10 12 10 11 11 10 11 11 10 8 9 8 8 8 7 8 8 8 7
8 7 10 10 14 13 10 10 16 14 12 5 2 4 6 10 11 5 9 5 10 9 11 9 12 17 1 1 0 1 3 6 6 7 5 7 7 5 4 4 4 4 5 6 6 6 11 12 9 9 10 11 11 12 11 11 11 10 10 12 11 12 11 11 10 12 12 11 12 11 12 11 10 11 11 10 9 10 9 9 8 8 7 8 10 8
2 2 9 15 18 18 18 2 4 11 6 7 11 13 11 11 13 13 6 6 14 14 6 12 18 21 9 2 2 5 3 7 4 2 5 7 7 7 6 4 4 6 6 8 9 9 6 7 12 12 12 12 11 12 11 12 11 10 10 11 11 11 11 12 11 11 12 12 12 11 11 11 11 10 10 10 9 8 8 9 8 8 9 8 9 9
2 3 8 13 16 17 11 3 5 15 14 17 16 13 14 13 13 14 15 19 16 2 14 16 17 13 24 14 5 6 7 5 5 7 8 6 7 8 4 3 5 5 5 4 5 9 12 12 11 12 13 12 12 11 11 10 11 12 12 12 11 10 10 9 11 11 11 11 11 12 12 10 9 9 10 9 8 9 8 8 8 8 7 8 9 8
5 8 9 7 14 17 17 4 9 6 11 13 16 15 15 16 13 17 21 24 11 13 20 20 8 15 23 21 11 12 8 9 8 10 11 6 4 4 4 5 6 7 5 7 10 10 11 12 13 13 13 13 11 13 13 11 11 10 9 8 9 10 11 10 10 11 11 11 12 12 10 9 8 7 9 9 9 9 9 9 8 8 8 8 7 6
1 6 3 6 13 15 17 8 5 9 4 4 12 16 17 17 20 23 25 24 19 14 16 19 9 16 19 20 6 13 11 10 9 3 2 3 8 8 6 7 7 7 8 10 12 12 12 12 11 12 11 12 14 14 13 13 12 12 11 11 11 11 9 10 11 12 11 12 11 9 9 9 8 8 8 9 10 10 9 9 9 9 9 8 7 7
6 9 8 2 3 10 16 7 4 10 9 8 6 8 13 17 21 25 23 18 15 16 19 20 17 17 21 3 3 5 6 6 4 4 9 8 7 8 10 7 7 8 10 11 9 10 10 9 9 9 12 15 15 16 15 14 12 11 11 11 12 12 11 11 11 12 12 12 10 10 10 10 10 10 11 10 10 9 10 10 8 8 7 7 7 8
5 4 3 4 7 12 14 12 11 4 4 5 5 8 13 18 20 17 15 14 13 18 20 15 15 20 16 11 7 5 5 7 10 10 8 9 10 10 8 9 9 10 10 11 11 8 8 10 12 14 16 16 15 15 13 12 12 11 14 12 12 11 11 12 12 12 12 12 12 12 12 11 11 11 11 10 10 9 8 8 8 8 8 8 9 7
6 5 6 6 11 14 16 6 7 5 3 8 12 19 25 17 8 7 13 15 19 17 14 15 20 21 20 7 7 6 7 9 7 8 11 14 11 7 8 10 10 11 11 10 10 9 11 14 15 16 15 12 12 13 13 12 12 15 14 12 11 10 12 13 12 11 11 11 12 12 12 11 11 11 9 9 9 8 8 9 8 8 9 10 8 8
3 6 6 2 8 9 7 4 7 7 14 14 16 21 18 18 16 15 17 20 17 13 14 18 19 21 18 14 11 12 8 10 12 13 10 9 8 7 7 9 12 10 8 7 8 11 12 10 9 10 11 11 11 12 11 12 13 10 9 10 9 12 11 12 12 11 10 10 10 11 11 11 11 10 10 9 9 10 10 10 11 9 8 8 8 8
7 5 6 4 2 6 2 6 6 16 15 7 3 1 10 16 18 23 22 18 17 16 17 18 20 21 20 15 11 11 11 12 9 9 7 5 5 7 11 12 11 8 10 10 10 10 10 8 7 8 9 11 11 10 10 10 9 7 8 10 11 10 10 10 10 10 10 10 9 9 9 11 12 12 11 11 11 11 11 10 8 8 8 8 9 10
9 9 4 4 3 1 3 7 8 7 2 4 3 0 1 3 10 12 14 15 16 19 21 24 26 24 21 17 12 10 10 9 7 8 7 5 8 11 11 11 9 8 9 11 13 11 7 10 13 14 13 7 8 8 10 10 9 10 10 9 11 10 10 11 10 10 10 10 10 12 11 10 9 9 9 10 10 10 10 9 10 11 9 9 7 6
13 7 6 5 6 8 4 10 12 5 9 4 4 4 7 9 9 14 12 16 19 19 19 20 23 22 18 17 16 13 4 6 10 15 6 9 14 11 10 11 11 12 12 10 6 8 9 9 9 8 6 8 10 10 11 10 10 10 10 10 9 10 10 10 11 11 11 12 12 12 12 13 14 13 13 12 12 11 11 11 11 9 7 8 8 9
12 14 8 11 6 10 9 8 4 6 12 14 11 0 6 6 13 14 11 10 7 16 19 18 19 19 18 19 18 7 2 5 14 18 5 11 10 7 10 11 8 5 5 5 4 4 4 4 4 6 9 10 10 10 9 10 11 11 11 11 10 11 10 11 12 11 12 12 12 12 13 13 13 13 12 12 13 13 12 10 7 8 8 10 10 9
12 14 12 13 6 6 10 10 8 9 10 9 3 7 9 6 10 6 5 11 10 9 14 15 16 19 20 19 13 7 3 7 14 15 2 6 6 7 8 6 3 4 4 4 5 5 5 6 8 8 8 9 10 9 10 11 12 12 11 11 11 11 12 13 13 14 14 12 10 10 9 9 10 11 12 12 11 10 10 10 10 8 7 7 7 8
14 10 9 12 11 10 9 10 9 4 8 5 5 3 5 6 11 11 5 9 7 8 12 13 18 21 20 15 4 6 10 10 13 13 1 2 3 2 3 4 4 1 1 1 1 4 5 6 7 7 9 11 10 10 11 11 12 11 12 10 11 12 14 16 13 10 9 9 10 9 10 10 11 10 11 10 9 8 8 7 7 8 8 7 6 7
10 7 11 18 13 15 16 10 5 5 4 3 6 4 5 8 11 10 13 11 5 7 8 14 17 17 13 7 8 8 12 15 7 1 1 1 2 1 2 2 1 0 1 1 2 4 5 5 6 8 8 7 9 10 11 11 11 11 10 11 11 15 13 8 8 10 10 9 9 10 10 9 10 11 10 10 10 9 9 8 9 8 9 9 7 7
7 8 5 9 13 13 12 14 12 6 5 6 0 12 10 9 5 13 7 1 9 6 9 9 13 11 6 9 10 12 8 1 2 1 2 1 3 2 1 1 3 4 3 2 4 4 4 4 4 5 5 5 9 10 10 10 11 10 10 11 14 9 6 8 9 9 9 10 10 10 10 10 9 10 10 9 9 10 10 8 9 9 10 9 9 11
13 9 10 12 7 8 6 10 7 13 5 11 14 2 4 7 7 6 2 0 2 4 8 6 8 7 7 8 9 9 2 1 1 1 1 1 3 3 3 3 3 3 3 4 4 3 6 5 5 5 5 6 7 9 9 11 11 9 9 9 6 6 8 8 9 9 10 10 11 11 11 11 12 11 9 10 11 12 11 10 10 10 9 10 10 10
8 10 5 8 8 10 12 12 9 3 5 11 18 10 9 10 3 4 6 2 1 4 7 6 7 7 7 8 8 5 4 2 0 2 2 1 2 2 3 3 3 2 3 3 3 4 5 6 5 5 4 5 6 6 8 10 9 7 7 6 6 8 8 9 9 9 9 9 10 10 10 10 10 10 9 10 10 10 10 10 9 8 8 9 9 8
8 10 6 10 6 10 8 7 1 2 10 13 6 4 11 12 2 3 1 3 6 6 4 4 8 6 7 7 4 6 4 6 5 5 5 5 4 4 4 3 4 4 4 5 4 4 4 7 7 6 5 4 6 6 7 7 9 9 9 7 8 9 10 9 10 10 10 10 9 10 9 9 9 10 9 9 11 10 9 9 8 8 6 8 8 8
3 1 0 4 4 2 2 3 3 1 4 9 3 1 1 1 1 2 3 2 4 4 9 9 6 6 6 6 8 4 6 7 5 5 2 4 4 3 3 3 3 3 3 4 4 4 5 6 6 7 7 4 5 6 6 6 9 12 8 7 8 8 9 10 10 10 10 9 9 9 9 10 8 8 9 10 9 10 9 11 10 10 8 8 8 8
3 1 1 3 1 5 7 5 8 8 5 6 9 2 0 1 3 3 3 4 4 5 6 3 6 9 11 10 10 10 7 6 7 4 4 4 4 4 4 5 3 3 4 6 4 6 7 7 7 7 7 7 3 5 4 5 4 6 7 8 8 8 9 9 10 9 8 9 8 8 9 10 8 8 7 7 7 7 7 7 8 8 8 9 9 9
3 3 3 1 1 6 5 2 3 3 2 3 5 6 7 5 4 3 4 2 2 2 2 4 3 4 5 7 7 8 8 7 8 8 6 5 5 5 4 4 4 3 3 3 3 4 5 5 7 7 6 7 4 4 5 5 5 6 7 6 7 8 9 9 9 9 9 9 8 8 8 8 10 10 8 8 8 8 7 6 8 9 11 12 12 11
5 4 3 5 6 4 4 4 3 3 3 5 5 6 5 5 5 5 3 2 2 4 2 2 3 5 9 9 6 6 8 6 5 7 8 6 5 4 5 4 3 3 3 5 3 4 6 6 6 6 6 5 4 4 5 5 4 5 7 7 7 8 9 8 7 7 7 7 7 7 7 7 8 8 8 7 7 7 9 11 11 11 9 8 9 11
5 6 3 3 1 4 10 11 6 3 5 8 8 10 10 8 5 5 2 3 5 7 6 7 2 2 3 4 7 8 9 8 5 6 7 7 7 6 5 5 4 4 3 2 3 3 3 3 5 6 5 4 4 4 5 5 4 4 5 6 6 8 9 8 7 7 7 7 7 7 7 6 7 6 7 8 8 7 5 4 6 7 8 8 9 13
12 11 10 10 8 11 14 12 8 10 8 4 7 9 10 8 8 7 9 9 8 6 7 8 7 2 3 3 3 6 7 10 9 6 6 5 6 6 6 8 9 6 6 4 5 4 5 4 4 5 5 5 4 5 5 5 4 4 4 5 6 7 8 8 7 6 6 6 6 7 7 7 7 6 6 7 7 7 7 6 4 10 13 9 6 9
Wind_Direction
74 142 171 201 222 215 202 194 195 147 136 99 93 115 197 213 282 273 269 257 236 330 233 228 240 251 265 266 264 257 160 228 255 257 252 250 240 236 237 235 233 231 239 164 188 184 190 189 188 188 178 179 185 182 176 165 163 157 150 148 147 143 140 146 137 143 134 124 118 89 92 104 87 68 69 66 37 36 55 73 68 72 83 86 87 83
61 140 244 225 227 203 203 162 104 96 65 142 114 167 270 148 253 236 239 25 312 173 295 273 254 258 258 267 267 256 148 236 231 239 248 249 238 235 234 239 232 235 45 158 187 197 188 187 192 188 183 179 188 189 176 175 173 166 159 160 150 142 150 152 145 146 109 73 127 131 124 119 103 92 76 79 49 58 69 55 66 78 80 85 83 85
156 204 237 232 120 102 82 155 158 163 146 69 187 187 321 267 252 280 272 322 288 104 261 284 264 261 261 263 270 258 234 241 228 220 236 235 241 238 236 239 239 221 224 190 203 184 193 191 192 191 187 189 194 182 182 179 170 168 165 164 157 155 150 140 119 113 103 94 97 103 113 104 97 56 62 69 81 79 76 63 25 60 71 81 78 81
264 279 243 197 139 111 51 89 122 88 70 144 103 119 233 230 34 298 304 5 199 182 261 35 303 282 281 262 257 255 236 241 241 236 242 236 242 240 234 228 227 226 220 205 192 196 191 192 194 193 190 189 186 180 184 182 177 171 171 165 163 160 154 136 106 101 81 81 83 78 89 86 88 119 96 83 52 79 81 59 34 40 36 73 83 79
204 205 296 157 159 164 167 128 120 142 229 269 184 202 230 205 230 191 252 303 276 320 49 305 287 278 242 261 269 260 285 254 262 259 260 252 238 249 265 261 223 226 210 205 193 193 189 194 199 194 184 178 188 187 186 182 181 173 172 168 164 154 146 133 125 115 116 112 93 93 88 95 102 93 92 88 49 39 77 75 33 39 21 78 87 87
273 260 87 97 163 163 123 148 193 148 235 300 229 201 216 215 237 273 341 3 1 337 355 57 323 290 267 259 256 281 335 294 260 256 261 256 242 238 244 244 237 232 204 200 196 193 193 197 188 192 184 187 189 192 187 180 179 170 168 162 155 143 135 137 133 135 138 140 135 133 123 121 117 120 132 133 131 131 80 83 86 56 36 55 74 87
221 162 136 171 164 183 173 180 231 155 194 241 274 201 214 216 211 247 279 70 294 248 311 32 215 283 288 276 255 261 249 260 276 252 259 263 255 235 236 243 231 218 210 210 199 189 190 195 187 191 189 190 191 191 174 174 179 169 161 156 151 147 140 139 144 149 148 149 159 153 155 154 154 141 100 73 54 97 93 92 80 68 37 55 92 86
113 193 105 84 110 145 173 214 239 174 148 240 257 151 173 164 197 226 173 185 241 257 295 34 133 276 280 256 267 230 232 253 268 266 262 262 256 245 240 243 228 215 207 199 200 194 194 187 189 191 189 188 189 173 168 175 174 165 158 152 149 143 143 147 151 157 164 155 157 143 130 128 132 140 141 136 121 102 99 97 86 91 80 70 72 101
151 186 184 173 155 161 205 204 188 163 149 218 276 129 138 167 182 121 150 193 239 20 288 296 282 296 253 266 346 121 234 267 258 257 258 259 257 253 242 238 230 219 210 198 194 193 190 191 194 190 185 186 176 171 175 174 165 155 151 150 146 146 146 152 157 159 165 160 153 145 139 124 94 108 119 120 118 113 116 105 101 101 98 88 74 79
318 173 210 178 161 214 214 249 163 162 199 232 127 90 83 78 66 111 104 116 317 17 262 208 176 219 277 192 129 342 210 253 248 246 250 252 255 265 259 247 234 228 212 203 201 187 190 191 191 188 175 174 181 169 162 152 151 153 152 152 151 151 151 153 155 161 159 150 144 143 140 135 129 126 110 109 120 126 126 118 123 119 115 114 103 90
275 286 194 136 199 200 120 44 167 177 138 132 96 75 27 41 42 28 65 88 39 266 256 193 196 164 284 179 180 168 209 200 235 271 270 267 271 271 261 261 255 223 194 186 186 183 182 178 176 174 179 177 168 164 158 158 159 156 158 156 159 159 155 160 161 164 165 155 156 148 144 142 130 133 133 130 123 127 128 135 138 136 134 127 118 111
291 6 152 250 89 109 99 79 21 87 125 124 99 126 65 344 10 36 342 40 119 267 24 307 196 175 224 284 268 243 285 252 213 228 250 265 259 265 276 277 264 185 178 172 164 162 156 153 174 181 181 177 172 167 168 167 161 162 161 160 157 159 162 165 166 166 167 163 161 160 160 155 152 149 153 149 151 158 151 152 145 144 131 126 119 117
271 225 233 320 206 136 115 82 11 32 13 88 92 85 120 252 33 304 23 268 194 240 183 342 134 338 242 248 260 272 266 261 218 224 236 249 280 267 259 272 262 170 147 159 168 163 172 176 179 187 183 176 177 180 174 171 167 164 164 165 159 164 164 167 166 170 168 166 168 168 167 167 163 156 155 155 151 160 156 157 150 155 149 147 139 155
270 291 263 238 51 235 143 151 170 62 211 135 161 150 110 212 191 261 273 271 310 290 267 137 127 251 306 273 224 239 241 234 239 230 239 249 259 270 269 283 254 162 168 176 174 180 184 186 187 187 184 182 179 179 177 172 170 169 167 169 166 166 167 166 169 168 170 174 171 171 169 166 167 159 156 158 155 161 158 160 159 161 159 159 158 156
245 302 245 137 244 178 182 205 184 158 163 200 101 162 184 149 161 209 198 220 239 236 271 278 66 233 127 241 272 237 271 306 263 260 246 256 254 262 295 320 134 169 197 178 186 191 192 191 187 187 187 183 180 179 178 175 175 170 170 170 168 163 172 171 173 170 175 173 169 172 169 168 172 159 161 163 161 157 157 162 160 158 160 156 158 154
211 236 265 209 300 157 190 215 109 96 65 215 164 69 96 226 127 241 209 175 288 335 334 212 213 196 190 266 288 238 278 283 273 267 254 264 263 252 267 223 188 201 196 194 199 204 202 193 188 190 191 184 179 180 179 178 175 175 176 173 173 171 171 175 174 175 174 173 170 168 166 173 173 161 153 150 153 157 156 159 163 162 162 155 144 137
59 270 279 323 61 181 190 119 185 142 204 208 114 203 211 161 129 79 32 54 77 43 257 126 287 275 298 281 238 245 247 272 306 286 270 261 264 274 272 230 194 200 199 201 207 208 198 186 195 195 191 186 181 181 183 182 180 179 174 175 173 174 173 176 177 173 173 169 170 171 169 168 168 166 165 167 166 162 156 157 164 158 153 141 143 145
157 238 294 119 219 303 85 206 108 23 140 100 187 229 155 128 92 149 223 355 68 217 271 113 249 297 41 287 1 6 259 257 257 257 243 257 278 291 269 283 188 200 207 212 218 213 197 194 191 194 196 193 189 184 182 184 179 181 178 177 174 174 176 178 175 176 174 169 174 170 171 174 175 172 171 164 161 156 151 155 151 144 148 159 154 152
140 270 297 295 54 306 1 116 47 343 13 141 197 193 126 228 239 286 95 247 200 260 274 293 283 262 188 256 91 264 216 245 240 239 257 269 260 256 265 285 194 203 210 213 215 205 196 195 195 193 194 193 191 188 186 179 177 179 181 183 179 178 179 176 176 175 174 174 172 172 172 172 173 172 161 157 155 152 157 160 162 162 153 141 152 154
48 181 291 337 144 279 34 129 201 190 9 55 72 142 65 101 162 132 197 179 129 260 43 289 44 278 153 224 193 222 214 224 245 262 234 235 241 242 251 229 204 206 210 210 209 209 201 198 195 192 191 190 187 184 181 177 178 184 181 180 184 180 179 176 174 171 175 177 173 172 165 169 168 162 162 160 159 163 165 163 161 157 154 159 153 152
215 154 251 317 317 92 185 200 207 165 172 175 134 195 186 25 238 112 10 146 173 176 177 285 311 270 247 199 175 217 217 221 200 219 236 227 235 234 229 205 215 214 208 209 208 202 200 197 192 195 197 192 185 183 177 180 184 183 178 184 182 178 181 183 178 175 178 168 171 166 169 166 165 162 155 155 165 162 158 156 157 156 147 139 157 148
202 160 218 127 1 219 240 254 217 198 192 176 179 195 186 138 153 155 243 47 118 112 234 170 252 271 255 166 202 199 235 225 208 223 224 242 244 231 223 228 208 210 217 210 203 193 194 189 187 191 189 183 184 187 184 185 181 182 185 184 178 180 184 179 179 180 171 174 167 171 172 171 163 159 155 158 162 162 157 160 161 152 147 157 146 141
178 150 129 198 209 206 205 225 245 236 312 204 180 220 176 188 164 169 203 225 70 242 82 178 85 270 185 186 204 228 187 270 218 170 259 241 239 230 242 235 240 213 201 205 194 189 188 182 182 188 190 192 195 191 187 186 187 186 185 181 184 182 186 181 178 175 173 172 170 172 170 164 164 158 160 161 166 164 159 159 155 151 154 152 140 125
72 143 185 264 357 312 307 284 48 86 107 300 278 79 148 194 197 193 198 178 173 161 205 224 163 260 51 243 240 213 263 246 291 196 228 273 273 257 241 248 228 218 222 211 188 183 183 174 172 180 191 196 199 195 195 194 191 188 187 184 180 187 180 177 177 176 172 172 172 168 164 170 163 162 165 168 167 164 161 156 152 149 148 144 138 135
162 221 202 176 355 348 342 345 312 5 72 213 175 204 200 201 194 126 89 100 179 204 199 157 226 258 253 317 329 355 326 304 278 273 213 252 273 254 248 242 228 211 187 188 187 187 175 174 187 194 191 195 199 199 197 197 195 191 190 183 184 185 178 178 175 174 177 172 167 169 171 172 170 170 169 166 162 164 157 156 152 155 153 146 141 138
189 165 173 200 210 217 224 206 215 205 199 191 230 192 199 174 186 137 214 189 221 228 190 203 243 251 20 320 179 295 313 302 261 252 269 219 249 266 240 229 227 206 198 191 188 181 196 196 193 194 195 197 199 198 197 199 196 195 193 189 181 180 177 181 177 178 173 175 172 172 175 175 173 175 169 165 165 163 161 158 159 157 154 153 143 142
181 279 203 197 206 219 226 249 50 94 79 189 214 189 198 201 193 198 198 204 217 228 182 224 229 256 262 262 263 251 251 231 277 279 248 251 249 243 250 248 217 211 204 196 195 201 196 199 202 201 198 198 199 198 198 197 195 195 193 190 186 184 178 178 178 178 178 176 174 172 179 177 179 172 168 167 164 159 160 163 161 159 158 154 146 149
50 228 223 226 232 237 237 157 209 146 174 204 201 202 201 191 193 192 199 220 213 123 250 230 227 245 259 235 226 260 261 276 258 262 266 261 260 245 231 221 227 232 228 208 209 202 205 207 203 201 199 198 201 198 201 200 198 194 191 189 184 182 180 179 179 178 178 176 175 178 181 178 171 170 168 160 157 161 160 156 157 156 149 147 151 158
175 220 223 217 242 243 247 173 176 175 181 192 200 197 194 195 188 197 217 228 200 202 228 242 184 224 250 254 210 224 204 213 212 225 226 218 233 222 197 213 229 230 223 212 223 216 211 207 205 201 200 200 195 199 199 197 198 195 192 187 184 181 185 175 176 179 180 179 181 182 174 163 166 167 160 155 151 154 161 161 158 152 152 155 153 151
128 255 224 204 233 246 254 227 193 183 210 193 201 202 196 188 197 205 217 222 216 223 239 251 229 222 240 256 200 218 209 205 226 232 333 272 250 260 252 243 239 238 223 225 225 220 217 215 205 203 197 197 200 199 198 198 197 193 189 188 183 183 179 167 181 179 182 186 182 168 162 161 158 157 154 153 160 165 162 162 159 157 158 157 147 137
175 233 216 131 225 251 250 234 180 210 190 208 223 211 201 201 206 208 215 223 222 238 244 246 254 260 255 197 188 223 198 225 291 279 238 242 256 253 253 250 240 237 234 235 236 227 221 214 210 200 200 205 201 200 198 198 192 186 189 189 185 180 174 173 179 185 183 183 174 162 156 158 164 162 167 168 163 161 162 162 161 160 155 145 140 140
165 275 49 133 227 248 245 223 216 199 218 220 211 211 219 211 212 212 214 214 204 219 230 245 255 254 254 121 219 189 212 216 228 243 249 248 234 234 240 242 238 239 238 236 236 229 216 213 206 204 207 206 203 199 196 193 188 186 196 187 183 178 167 174 183 186 186 180 169 164 164 167 166 168 169 165 167 161 158 155 156 157 154 149 147 149
182 179 194 186 222 234 244 190 182 172 208 253 231 224 217 214 205 206 222 216 215 208 216 222 234 241 254 219 217 220 198 230 233 237 247 249 249 231 233 238 239 240 236 234 233 225 219 214 210 207 209 205 200 197 197 187 186 196 190 182 180 163 173 178 180 182 184 180 172 167 165 165 165 165 165 165 156 151 149 155 160 160 160 166 159 146
139 183 216 156 228 236 242 131 147 156 218 224 222 222 215 211 190 201 215 218 220 199 216 221 232 244 245 245 232 240 202 223 221 230 228 242 261 256 248 239 242 240 243 240 231 227 227 219 214 210 207 202 198 195 187 187 192 190 178 171 164 173 174 175 178 179 180 173 172 166 163 160 159 163 165 159 155 156 162 167 173 172 165 152 150 160
186 187 217 167 223 239 128 120 183 220 226 229 22 196 209 204 199 209 221 217 218 217 230 242 246 249 248 243 232 233 239 244 247 250 256 235 216 233 242 247 241 235 237 240 243 235 226 207 198 197 197 200 190 180 174 184 179 160 161 165 168 171 169 174 169 173 173 173 167 162 163 164 167 169 164 162 162 164 168 170 165 163 164 164 166 166
187 196 159 211 172 49 167 185 231 222 251 317 260 168 265 180 199 198 237 238 224 216 214 229 237 243 249 252 251 247 248 265 293 254 222 224 216 227 237 245 241 223 231 230 230 233 200 194 195 197 201 172 160 171 175 176 163 162 168 161 166 166 168 170 175 174 165 163 164 170 173 166 163 160 159 162 165 166 166 165 170 171 170 167 168 168
193 186 179 238 171 225 176 209 237 10 320 265 263 227 163 160 160 174 209 237 223 218 215 225 238 244 251 256 253 252 280 329 295 276 159 209 230 229 228 241 231 227 226 237 216 228 208 200 196 188 155 159 166 165 174 164 160 158 152 158 164 161 166 170 175 174 170 176 176 171 168 169 167 168 168 168 167 170 168 169 177 177 163 164 169 170
187 201 183 216 213 204 216 239 248 243 248 247 222 251 189 177 173 180 182 258 232 213 217 215 229 241 243 248 250 242 74 312 280 276 221 211 236 230 233 239 252 258 242 235 235 225 190 178 150 150 155 158 168 167 155 153 155 151 156 163 160 162 167 174 184 180 179 180 179 178 174 173 168 165 166 167 171 174 180 179 169 167 171 173 168 179
205 203 194 206 203 177 215 230 220 222 239 246 242 182 188 184 153 128 158 247 258 182 207 200 221 234 235 238 242 104 174 246 257 265 207 206 236 227 234 255 256 246 240 218 196 186 175 169 159 156 149 151 158 162 154 153 152 155 163 165 165 168 174 187 188 184 183 180 173 170 160 160 167 171 171 177 179 174 169 168 170 164 163 177 176 182
197 206 192 213 210 204 211 223 229 201 241 254 206 223 181 135 120 113 173 250 248 154 188 176 208 227 234 236 173 145 182 234 247 258 146 261 268 246 201 219 219 253 250 246 227 177 158 138 121 136 157 167 168 153 151 152 157 162 165 166 166 177 190 194 187 173 167 166 165 161 163 170 169 169 168 168 160 159 164 154 155 168 174 180 180 182
201 210 201 207 208 217 218 238 253 263 267 209 191 186 153 154 133 162 208 234 181 187 172 184 204 220 227 209 153 199 215 217 237 358 299 137 101 74 22 54 61 246 156 128 137 119 134 150 154 164 167 160 149 152 154 156 159 167 168 167 175 196 194 169 153 159 160 155 157 161 163 164 168 167 168 166 166 164 165 170 174 169 175 182 187 190
214 204 222 212 221 218 219 227 231 256 230 155 267 159 170 119 202 211 224 169 152 175 203 186 198 217 190 187 190 211 225 318 277 196 111 129 150 157 76 72 74 59 39 72 98 113 114 113 107 108 114 137 149 151 156 158 165 167 167 174 194 185 127 144 149 143 149 154 159 162 163 166 168 168 166 163 159 166 177 179 176 181 183 186 190 197
182 190 194 205 211 232 217 234 222 229 220 145 122 90 288 195 228 171 146 287 184 174 159 207 206 221 165 215 214 222 215 22 67 138 154 133 133 142 138 111 106 119 113 98 81 93 119 111 112 124 135 142 148 153 157 161 165 169 171 182 167 132 138 135 143 148 154 158 162 167 169 171 171 172 170 171 174 175 180 179 182 185 183 186 191 198
180 202 183 217 187 210 201 215 216 216 108 156 144 178 206 213 187 167 130 169 228 159 181 184 224 206 199 201 211 215 220 169 244 138 131 107 118 120 94 96 102 104 81 73 110 127 117 109 110 108 118 136 141 150 156 162 161 157 161 159 132 132 133 143 149 153 157 163 168 167 171 173 174 174 172 172 173 178 178 178 181 176 181 182 185 191
211 199 187 196 182 198 210 207 148 226 166 192 186 187 200 208 112 184 147 157 161 231 186 176 214 201 192 188 178 173 176 216 197 183 164 188 162 156 149 147 149 148 140 129 124 119 117 133 130 121 110 121 138 143 153 156 150 148 158 160 145 146 149 151 153 157 164 166 167 169 168 167 171 174 173 172 171 174 177 172 166 174 176 173 185 192
318 176 103 102 256 263 264 161 160 157 230 228 246 123 346 310 316 142 150 174 247 192 177 188 198 175 173 170 151 208 205 184 165 180 172 153 160 133 116 108 94 98 105 103 96 98 112 107 111 119 123 118 139 145 154 156 156 163 164 144 147 149 149 150 153 160 163 162 162 166 160 163 167 169 171 170 177 180 180 176 178 182 178 182 194 197
256 194 126 166 252 175 257 201 195 214 211 212 219 199 244 221 214 176 201 221 227 179 197 211 171 176 175 173 182 180 184 170 168 164 158 149 155 162 150 146 142 139 142 131 132 122 119 124 124 133 139 147 161 147 144 144 128 136 140 151 149 148 147 149 154 157 156 163 160 155 161 162 167 166 166 171 172 177 173 172 175 177 177 186 193 200
299 193 142 232 210 202 234 254 284 273 241 237 222 217 235 227 229 222 214 246 242 231 202 200 151 158 151 179 188 162 167 169 163 168 167 171 162 159 158 150 140 102 70 94 116 114 114 128 139 145 150 153 161 140 136 131 131 139 138 140 143 142 142 148 156 159 165 163 160 161 165 168 163 164 169 177 174 174 176 176 178 183 191 191 195 196
180 111 206 204 213 242 288 288 259 345 321 258 228 236 232 208 202 225 215 236 172 161 147 132 195 180 175 184 160 152 145 187 181 168 160 154 151 157 166 156 140 132 132 127 134 142 151 151 148 157 149 147 142 130 126 126 129 140 140 143 143 143 143 152 156 151 153 153 152 160 165 165 167 174 170 174 184 197 188 181 186 197 211 215 198 197
117 194 198 156 150 218 208 229 162 211 252 242 217 209 214 209 187 193 150 179 190 178 178 161 153 157 188 170 168 161 164 174 175 155 164 169 173 165 148 146 142 134 130 115 117 117 115 137 149 151 144 138 133 133 131 125 115 116 131 138 146 146 146 149 147 146 156 158 160 156 161 163 166 169 170 174 185 187 230 254 212 209 202 213 206 216
197 201 172 193 186 219 224 227 188 207 240 222 202 207 204 179 172 178 202 204 201 193 176 156 138 128 188 219 203 175 171 165 175 152 145 162 178 174 163 155 153 155 155 154 124 124 135 140 133 127 132 144 139 131 129 121 122 121 134 150 156 153 149 147 147 149 148 160 169 170 170 164 166 173 174 176 178 187 195 219 245 228 228 225 207 218